EW6230 Weather Reports


time (UTC)temp
C
wind
direction
speed
KPH
gust
KPH
rain 1hr
cm
rain 24hr
cm
rain mn
cm
humidity
%
barometer
mb
20260901134511 -17 0.0 0.0 0.00 0.00 0.00 1005.1
20260901133009 -17 0.0 0.0 0.00 0.00 0.00 1005.0
20260901131604 -17 0.0 0.0 0.00 0.00 0.00 1005.0
20260901130055 -17 0.0 0.0 0.00 0.00 0.00 1004.8
20260901124555 -17 0.0 0.0 0.00 0.00 0.00 1005.0
20260901123047 11 4 0.0 1.6 0.00 0.00 0.00 1 1005.0
20260901121545 11 1 0.0 1.6 0.00 0.00 0.00 1 1005.0
20260901120037 11 251 0.0 0.0 0.00 0.00 0.00 1 1005.1
20260901114545 12 251 0.0 1.6 0.00 0.00 0.00 1 1005.2
20260901113028 12 251 0.0 0.0 0.00 0.00 0.00 1 1005.3
20260901111524 12 251 0.0 1.6 0.00 0.00 0.00 1 1005.2
20260901110020 12 330 0.0 3.2 0.00 0.00 0.00 1 1005.3
20260901104515 12 229 0.0 0.0 0.00 0.00 0.00 1 1005.2
20260901103011 12 229 0.0 0.0 0.00 0.00 0.00 1 1005.3
20260901101506 12 229 0.0 0.0 0.00 0.00 0.00 1 1005.3
20260901100001 12 229 0.0 0.0 0.00 0.00 0.00 1 1005.4
20260901094557 12 229 0.0 0.0 0.00 0.00 0.00 1 1005.2
20260901093053 12 229 0.0 0.0 0.00 0.00 0.00 1 1005.3
20260901091553 12 229 0.0 0.0 0.00 0.00 0.00 1 1005.2
20260901090044 12 229 0.0 0.0 0.00 0.00 0.00 1 1005.2
20260901084539 12 229 0.0 0.0 0.00 0.00 0.00 1 1005.2
20260901083036 12 229 0.0 0.0 0.00 0.00 0.00 1 1005.1
20260901081538 12 229 0.0 0.0 0.00 0.00 0.00 1 1005.2
20260901080030 12 229 0.0 0.0 0.00 0.00 0.00 1 1005.1
20260901074522 12 229 0.0 0.0 0.00 0.00 0.00 1 1005.0
20260901073019 12 229 0.0 0.0 0.00 0.00 0.00 1 1005.1
20260901071514 12 229 0.0 0.0 0.00 0.00 0.00 1 1005.1
20260901070009 12 229 0.0 0.0 0.00 0.00 0.00 1 1005.1
20260901064505 12 229 0.0 0.0 0.00 0.00 0.00 1 1005.2
20260901063002 12 229 0.0 0.0 0.00 0.00 0.00 1 1005.3
20260901061557 12 229 0.0 0.0 0.00 0.00 0.00 1 1005.4
20260901060052 13 229 0.0 0.0 0.00 0.00 0.00 2 1005.5
20260901054551 13 229 0.0 0.0 0.00 0.00 0.00 2 1005.7
20260901053051 13 229 0.0 0.0 0.00 0.00 0.00 2 1005.7
20260901051539 13 229 0.0 0.0 0.00 0.00 0.00 1 1005.6
20260901050035 13 229 0.0 0.0 0.00 0.00 0.00 1 1005.8
20260901044530 13 229 0.0 0.0 0.00 0.00 0.00 6 1005.8
20260901043026 13 229 0.0 0.0 0.00 0.00 0.00 7 1005.8
20260901041523 13 229 0.0 0.0 0.00 0.00 0.00 13 1005.7
20260901040018 13 229 0.0 0.0 0.00 0.00 0.00 19 1005.7
20260901034521 14 221 0.0 0.0 0.00 0.00 0.00 27 1005.6
20260901033012 14 122 0.0 0.0 0.00 0.00 0.00 28 1005.5
20260901031508 14 122 0.0 0.0 0.00 0.00 0.00 33 1005.5
20260901030059 15 122 0.0 0.0 0.00 0.00 0.00 39 1005.6
20260901024555 15 122 0.0 0.0 0.00 0.00 0.00 50 1005.7
20260901023050 16 122 0.0 0.0 0.00 0.00 0.00 59 1005.7
20260901021546 17 122 0.0 0.0 0.00 0.00 0.00 63 1005.6
20260901020041 18 122 0.0 0.0 0.00 0.00 0.00 62 1005.7
20260901014539 18 122 0.0 0.0 0.00 0.00 0.00 61 1005.9
20260901013050 19 122 0.0 0.0 0.00 0.00 0.00 61 1005.9
20260901011536 18 122 0.0 0.0 0.00 0.00 0.00 61 1005.9
20260901010024 18 122 0.0 0.0 0.00 0.00 0.00 61 1006.0
20260901004520 19 125 0.0 0.0 0.00 0.00 0.00 61 1006.1
20260901003015 19 124 0.0 0.0 0.00 0.00 0.00 62 1006.2
20260901001515 19 124 0.0 0.0 0.00 0.00 0.00 62 1006.4
20260901000006 19 124 0.0 0.0 0.00 0.00 0.00 62 1006.5
20260831234502 19 124 0.0 0.0 0.00 0.00 0.00 61 1006.5
20260831233056 20 125 0.0 0.0 0.00 0.00 0.00 61 1006.7
20260831231552 20 124 0.0 0.0 0.00 0.00 0.00 59 1006.8
20260831230048 21 125 0.0 0.0 0.00 0.00 0.00 58 1007.0
20260831224543 21 124 0.0 1.6 0.00 0.00 0.00 58 1007.2
20260831223042 21 15 0.0 1.6 0.00 0.00 0.00 55 1007.5
20260831221534 21 334 0.0 1.6 0.00 0.00 0.00 58 1007.5
20260831220031 21 1 0.0 1.6 0.00 0.00 0.00 59 1007.7
20260831214526 21 5 0.0 1.6 0.00 0.00 0.00 58 1007.9
20260831213024 21 75 0.0 1.6 0.00 0.00 0.00 59 1008.1
20260831211517 21 314 0.0 1.6 0.00 0.00 0.00 60 1008.3
20260831210012 21 288 0.0 1.6 0.00 0.00 0.00 58 1008.5
20260831204508 21 23 0.0 1.6 0.00 0.00 0.00 61 1008.5
20260831203004 20 314 0.0 1.6 0.00 0.00 0.00 61 1008.6
20260831201607 19 326 0.0 3.2 0.00 0.00 0.00 62 1008.8
20260831200137 20 72 0.0 1.6 0.00 0.00 0.00 61 1008.9
20260831194557 20 315 0.0 0.0 0.00 0.00 0.00 62 1009.2
20260831193045 19 56 0.0 1.6 0.00 0.00 0.00 62 1009.3
20260831191545 18 13 0.0 1.6 0.00 0.00 0.00 62 1009.5
20260831190040 18 333 0.0 1.6 0.00 0.00 0.00 62 1009.8
20260831184532 18 331 0.0 1.6 0.00 0.00 0.00 62 1009.9
20260831183028 18 332 0.0 1.6 0.00 0.00 0.00 62 1010.0
20260831181528 18 326 0.0 1.6 0.00 0.00 0.00 62 1010.1
20260831180019 17 67 0.0 1.6 0.00 0.00 0.00 57 1010.2
20260831174515 17 72 0.0 1.6 0.00 0.00 0.00 56 1010.3
20260831173010 17 70 0.0 1.6 0.00 0.00 0.00 44 1010.5
20260831171505 16 71 0.0 1.6 0.00 0.00 0.00 34 1010.5
20260831170001 16 75 0.0 1.6 0.00 0.00 0.00 36 1010.7
20260831164557 16 235 0.0 0.0 0.00 0.00 0.00 28 1010.7
20260831163051 16 234 0.0 1.6 0.00 0.00 0.00 36 1010.8
20260831161547 16 234 0.0 0.0 0.00 0.00 0.00 21 1010.9
20260831160043 16 234 0.0 0.0 0.00 0.00 0.00 2 1010.9
20260831154538 15 234 0.0 0.0 0.00 0.00 0.00 1 1011.0
20260831153034 13 237 0.0 0.0 0.00 0.00 0.00 1 1011.0
20260831151529 12 238 0.0 0.0 0.00 0.00 0.00 1 1011.1
20260831150025 12 238 0.0 0.0 0.00 0.00 0.00 1 1011.0
20260831144521 12 237 0.0 0.0 0.00 0.00 0.00 1 1011.1
20260831143018 11 237 0.0 0.0 0.00 0.00 0.00 1 1011.1
20260831141512 -17 0.0 0.0 0.00 0.00 0.00 1011.1
20260831140021 -17 0.0 0.0 0.00 0.00 0.00 1011.1